Skip Page Navigation
NASA JPL Caltech
NASA Logo - Jet Propulsion Laboratory + View the NASA Portal
+ Near-Earth Object (NEO) Program
Search JPL
JPL Home Earth Solar System Stars & Galaxies Technology
JPL Solar System Dynamics
BODIES ORBITS EPHEMERIDES TOOLS PHYSICAL DATA DISCOVERY FAQ SITE MAP
JPL Small-Body Database Browser
Search: [ help ]  
3081 Martinuboh (1971 UP)
Classification: Main-belt Asteroid          SPK-ID: 2003081
Ephemeris | Orbit Diagram | Orbital Elements | Physical Parameters | Discovery Circumstances ]

[ show orbit diagram ]
Orbital Elements at Epoch 2456800.5 (2014-May-23.0) TDB
Reference: JPL 11 (heliocentric ecliptic J2000)
 Element Value Uncertainty (1-sigma)   Units 
e .1828132188785779 6.6035e-08  
a 2.411127397728447 1.3612e-08 AU
q 1.97034143702338 1.6139e-07 AU
i 5.286601883569186 6.1765e-06 deg
node 43.80516904365783 6.929e-05 deg
peri 279.786060427731 7.1667e-05 deg
M 186.6696911533288 1.9979e-05 deg
tp 2457458.916451665875
(2016-Mar-11.41645167)
7.6947e-05 JED
period 1367.504184218542
3.74
1.158e-05
3.17e-08
d
yr
n .2632533078542069 2.2292e-09 deg/d
Q 2.851913358433513 1.61e-08 AU
  Orbit Determination Parameters
   # obs. used (total)      1031  
   data-arc span      22535 days (61.70 yr)  
   first obs. used      1952-09-14  
   last obs. used      2014-05-27  
   planetary ephem.      DE431  
   SB-pert. ephem.      SB431-BIG16  
   condition code      0  
   fit RMS      .52885  
   data source      ORB  
   producer      Otto Matic  
   solution date      2014-Jun-16 13:24:24  

Additional Information
 Earth MOID = .965639 AU 
 T_jup = 3.491 
[ show covariance matrix ]

Ephemeris | Orbit Diagram | Orbital Elements | Physical Parameters | Discovery Circumstances ]

Physical Parameter Table
Parameter Symbol Value Units Sigma Reference Notes
absolute magnitude H 13.6 mag n/a MPO253383  

3081 Martin{u°}boh           Discovered 1971 Oct. 26 by L. Kohoutek at Bergedorf.
Named in memory of the Czech composer Bohuslav Martin{u°} (1890-1959), known in the musical world as the author of remarkable orchestral and scenic works (six symphonies and twelve operas), as well as chamber and vocal music.
NOTE: some special characters may not display properly (any characters within {} are an attempt to place the proper accent above a character)
Reference: 19980411/MPCPages.arcLast Updated: 2009-11-17

Alternate Designations
 1971 UP = 1952 RJ = 1975 XG3 = 1982 RO 
Ephemeris | Orbit Diagram | Orbital Elements | Physical Parameters | Discovery Circumstances ]
ABOUT SSD CREDITS/AWARDS PRIVACY/COPYRIGHT GLOSSARY LINKS
FirstGov 2014-Jul-30 19:15 UT
(server date/time)  
NASA Home Page
Site Manager:   Donald K. Yeomans
Webmaster  Alan B. Chamberlin